Home > Weather > Nagaur > Past weeks

Flag for India Weather for the Past 2 Weeks in Nagaur, Rajasthan, India

Now
93 °F

Haze.


Feels Like: 89 °F
Forecast: 82 / 106 °F
Wind: 5 mph from North

Location: Jaipur / Sanganer

Current Time: May 2, 2016 at 1:28:30 AM

Latest Report: May 2, 2016 at 12:00 AM


Visibility: 2 mi

Pressure: 29.68 "Hg

Humidity: 11%

Dew Point: 32 °F

Location of NagaurLocation

Historic Weather in Nagaur — Graph

°F

Nagaur Temperature Yesterday

Maximum temperature yesterday: 108 °F (at 1:00 PM)
Minimum temperature yesterday: 81 °F (at 4:00 AM)
Average temperature yesterday: 97 °F

High & Low Weather Summary for the Past Weeks

 TemperatureHumidityPressure
High108 °F (May 1, 1:00 PM)32% (Apr 21, 6:30 AM)29.92 "Hg (Apr 21, 6:30 AM)
Low75 °F (Apr 24, 6:30 AM)2% (Apr 24, 11:00 AM)29.59 "Hg (Apr 22, 5:00 PM)
Average93 °F14%29.76 "Hg
* Reported Apr 16 11:30 PM — Midnight between May 1 and May 2, Nagaur, Weather by CustomWeather, © 2016

Note: Actual official high and low records may vary slightly from our data, if they occured in-between our weather recording intervals... More about our weather records

Advertising

Nagaur Weather History for the Previous 24 Hours

Scroll right to see more
 ConditionsComfort  
Time TempWeatherWind HumidityBarometerVisibility
12:00 AM
Mon, May 2
93 °FHaze.5 mph11%29.68 "Hg2 mi
11:30 PM
Sun, May 1
91 °FHaze.3 mph12%29.68 "Hg1 mi
9:00 PM95 °FHaze.1 mph10%29.68 "Hg1 mi
8:00 PM99 °FHaze.No wind8%29.68 "Hg2 mi
7:30 PM100 °FHaze.1 mph6%29.65 "Hg2 mi
7:00 PM102 °FHaze.6 mph5%29.65 "Hg3 mi
6:00 PM106 °FHaze.10 mph4%29.65 "Hg3 mi
5:30 PM108 °FHaze.8 mph4%29.65 "Hg3 mi
5:00 PM108 °FHaze.10 mph4%29.65 "Hg3 mi
4:30 PM108 °FHaze.9 mph4%29.65 "Hg3 mi
4:00 PM108 °FHaze.12 mph3%29.65 "Hg2 mi
3:30 PM106 °FHaze.9 mph4%29.65 "Hg2 mi
3:00 PM108 °FHaze.9 mph4%29.68 "Hg2 mi
2:30 PM108 °FHaze.12 mph5%29.68 "Hg2 mi
2:00 PM106 °FHaze.12 mph5%29.68 "Hg2 mi
1:30 PM108 °FHaze.10 mph5%29.71 "Hg2 mi
1:00 PM108 °FHaze.12 mph7%29.74 "Hg2 mi
12:30 PM104 °FHaze.8 mph9%29.74 "Hg2 mi
12:00 PM104 °FHaze.10 mph9%29.74 "Hg2 mi
11:30 AM102 °FHaze.8 mph11%29.77 "Hg2 mi
11:00 AM100 °FHaze.9 mph12%29.77 "Hg2 mi
10:00 AM97 °FHaze.13 mph13%29.80 "Hg2 mi
9:30 AM97 °FHaze.10 mph13%29.80 "Hg2 mi
9:00 AM95 °FHaze.10 mph13%29.80 "Hg2 mi
8:00 AM91 °FHaze.5 mph14%29.77 "Hg2 mi
7:30 AM90 °FHaze.3 mph14%29.77 "Hg2 mi
7:00 AM86 °FHaze.3 mph14%29.77 "Hg2 mi
6:30 AM84 °FHaze.5 mph15%29.74 "Hg2 mi
6:00 AM82 °FHaze.1 mph15%29.74 "Hg2 mi
5:30 AM84 °FHaze.3 mph14%29.74 "Hg2 mi
5:00 AM84 °FHaze.7 mph14%29.74 "Hg2 mi
4:00 AM81 °FHaze.No wind24%29.71 "Hg2 mi
3:00 AM84 °FHaze.No wind20%29.71 "Hg2 mi
2:00 AM86 °FHaze.No wind18%29.74 "Hg2 mi
1:00 AM86 °FHaze.No wind13%29.74 "Hg2 mi
Weather by CustomWeather, © 2016

See weather overviewHow to use our weather pages